• In Germany
  • List of Countries
  • For 7 days
  • Water Temperature
  • Satellite Maps
  • Weather Map
  • Weather Widgets
  • user-avatar
    Login

    Hourly Weather Salzburg

    Today, 25 April, Tuesday

    Time Temperature Precipitation Wind Pressure Humidity
    00:00 -2°C° 0 mm 3 mps 621 mmHg 95%
    01:00 -1°C° 0 mm 3 mps 621 mmHg 93%
    02:00 -1°C° 0 mm 3 mps 620 mmHg 93%
    03:00 -2°C° 0 mm 3 mps 620 mmHg 93%
    04:00 -2°C° 0 mm 3 mps 620 mmHg 93%
    05:00 -1°C° 0 mm 3 mps 620 mmHg 92%
    06:00 +1°C° 0 mm 2 mps 620 mmHg 91%
    07:00 +2°C° 0 mm 2 mps 620 mmHg 89%
    08:00 +3°C° 0 mm 2 mps 620 mmHg 87%
    09:00 +4°C° 0 mm 2 mps 620 mmHg 84%
    10:00 +5°C° 0 mm 2 mps 621 mmHg 82%
    11:00 +5°C° 0.2 mm 2 mps 620 mmHg 83%
    12:00 +5°C° 0.2 mm 2 mps 620 mmHg 83%
    13:00 +5°C° 0.2 mm 2 mps 620 mmHg 84%
    14:00 +5°C° 0.5 mm 2 mps 620 mmHg 85%
    15:00 +5°C° 0.5 mm 2 mps 619 mmHg 87%
    16:00 +5°C° 0.5 mm 2 mps 619 mmHg 89%
    17:00 +4°C° 0.5 mm 2 mps 619 mmHg 92%
    18:00 +3°C° 0.5 mm 2 mps 618 mmHg 95%
    19:00 +2°C° 0.5 mm 2 mps 618 mmHg 98%
    20:00 +2°C° 0.3 mm 2 mps 618 mmHg 98%
    21:00 +1°C° 0.3 mm 2 mps 618 mmHg 98%
    22:00 +1°C° 0.3 mm 2 mps 618 mmHg 98%
    23:00 +1°C° 0.2 mm 2 mps 618 mmHg 98%

    Tomorrow, 26 April, Wednesday

    Time Temperature Precipitation Wind Pressure Humidity
    00:00 +1°C° 0.2 mm 2 mps 618 mmHg 98%
    01:00 +1°C° 0.2 mm 2 mps 618 mmHg 98%
    02:00 -1°C° 0.1 mm 2 mps 617 mmHg 98%
    03:00 -1°C° 0.1 mm 2 mps 617 mmHg 98%
    04:00 -1°C° 0.1 mm 2 mps 617 mmHg 98%
    05:00 -1°C° 0.2 mm 2 mps 617 mmHg 98%
    06:00 -1°C° 0.2 mm 2 mps 617 mmHg 97%
    07:00 +1°C° 0.2 mm 2 mps 618 mmHg 97%
    08:00 +1°C° 0.5 mm 2 mps 618 mmHg 96%
    09:00 +1°C° 0.5 mm 2 mps 618 mmHg 96%
    10:00 +1°C° 0.5 mm 2 mps 618 mmHg 95%
    11:00 +2°C° 0.6 mm 2 mps 618 mmHg 95%
    12:00 +2°C° 0.6 mm 2 mps 618 mmHg 94%
    13:00 +2°C° 0.6 mm 2 mps 618 mmHg 94%
    14:00 +2°C° 0.9 mm 2 mps 618 mmHg 94%
    15:00 +1°C° 0.9 mm 2 mps 618 mmHg 95%
    16:00 +1°C° 0.9 mm 2 mps 618 mmHg 96%
    17:00 +1°C° 1.5 mm 2 mps 618 mmHg 97%
    18:00 -1°C° 1.5 mm 2 mps 618 mmHg 98%
    19:00 +1°C° 1.5 mm 1 mps 618 mmHg 99%
    20:00 0°C° 1.8 mm 1 mps 618 mmHg 99%
    21:00 0°C° 1.8 mm 1 mps 618 mmHg 99%
    22:00 0°C° 1.8 mm 1 mps 618 mmHg 99%
    23:00 -1°C° 2.3 mm 1 mps 618 mmHg 99%

    Day after tomorrow, 27 April, Thursday

    Time Temperature Precipitation Wind Pressure Humidity
    00:00 -1°C° 2.3 mm 1 mps 618 mmHg 99%
    01:00 -1°C° 2.3 mm 1 mps 618 mmHg 99%
    02:00 -1°C° 1.5 mm 1 mps 618 mmHg 98%
    03:00 -2°C° 1.5 mm 1 mps 618 mmHg 98%
    04:00 -2°C° 1.5 mm 1 mps 618 mmHg 98%
    05:00 -2°C° 0.4 mm 1 mps 618 mmHg 98%
    06:00 -1°C° 0.4 mm 1 mps 619 mmHg 97%
    07:00 -1°C° 0.4 mm 1 mps 619 mmHg 97%
    08:00 0°C° 0.5 mm 1 mps 619 mmHg 96%
    09:00 0°C° 0.5 mm 1 mps 620 mmHg 96%
    10:00 +1°C° 0.5 mm 1 mps 620 mmHg 95%
    11:00 +1°C° 1.3 mm 1 mps 620 mmHg 95%
    12:00 +1°C° 1.3 mm 1 mps 620 mmHg 96%
    13:00 +2°C° 1.3 mm 1 mps 620 mmHg 96%
    14:00 +1°C° 1.4 mm 1 mps 619 mmHg 96%
    15:00 +1°C° 1.4 mm 1 mps 619 mmHg 97%
    16:00 +1°C° 1.4 mm 1 mps 619 mmHg 97%
    17:00 +1°C° 1.7 mm 1 mps 619 mmHg 97%
    18:00 0°C° 1.7 mm 1 mps 619 mmHg 98%
    19:00 0°C° 1.7 mm 1 mps 619 mmHg 98%
    20:00 0°C° 1.7 mm 1 mps 619 mmHg 99%
    21:00 -1°C° 1.7 mm 1 mps 619 mmHg 99%
    22:00 -1°C° 1.7 mm 1 mps 619 mmHg 99%
    23:00 -1°C° 1.5 mm 1 mps 618 mmHg 99%

    28 April, Friday

    Time Temperature Precipitation Wind Pressure Humidity
    00:00 -1°C° 1.5 mm 1 mps 618 mmHg 99%
    01:00 -1°C° 1.5 mm 1 mps 618 mmHg 99%
    02:00 -1°C° 1.1 mm 1 mps 617 mmHg 99%
    03:00 -1°C° 1.1 mm 1 mps 617 mmHg 99%
    04:00 -2°C° 1.1 mm 1 mps 617 mmHg 99%
    05:00 -2°C° 1.6 mm 1 mps 617 mmHg 99%
    06:00 -2°C° 1.6 mm 1 mps 617 mmHg 99%
    07:00 -3°C° 1.6 mm 2 mps 617 mmHg 99%
    08:00 -3°C° 1.5 mm 2 mps 617 mmHg 98%
    09:00 -3°C° 1.5 mm 2 mps 617 mmHg 98%
    10:00 -3°C° 1.5 mm 2 mps 618 mmHg 98%
    11:00 -2°C° 1.1 mm 2 mps 618 mmHg 98%
    12:00 -2°C° 1.1 mm 2 mps 618 mmHg 98%
    13:00 -2°C° 1.1 mm 2 mps 619 mmHg 98%
    14:00 -2°C° 1 mm 2 mps 619 mmHg 98%
    15:00 -3°C° 1 mm 2 mps 619 mmHg 98%
    16:00 -3°C° 1 mm 2 mps 619 mmHg 98%
    17:00 -3°C° 0.7 mm 2 mps 619 mmHg 98%
    18:00 -4°C° 0.7 mm 2 mps 619 mmHg 97%
    19:00 -4°C° 0.7 mm 2 mps 620 mmHg 97%
    20:00 -5°C° 0.4 mm 2 mps 620 mmHg 97%
    21:00 -5°C° 0.4 mm 2 mps 621 mmHg 97%
    22:00 -6°C° 0.4 mm 2 mps 621 mmHg 96%
    23:00 -6°C° 0.2 mm 2 mps 621 mmHg 96%

    29 April, Saturday

    Time Temperature Precipitation Wind Pressure Humidity
    00:00 -6°C° 0.2 mm 2 mps 621 mmHg 96%
    01:00 -6°C° 0.2 mm 2 mps 621 mmHg 96%
    02:00 -7°C° 0.1 mm 2 mps 621 mmHg 96%
    03:00 -7°C° 0.1 mm 2 mps 621 mmHg 95%
    04:00 -8°C° 0.1 mm 2 mps 621 mmHg 95%
    05:00 -6°C° 0 mm 1 mps 622 mmHg 95%
    06:00 -4°C° 0 mm 1 mps 622 mmHg 94%
    07:00 -3°C° 0 mm 1 mps 623 mmHg 94%
    08:00 -2°C° 0 mm 1 mps 623 mmHg 92%
    09:00 0°C° 0 mm 1 mps 623 mmHg 91%
    10:00 0°C° 0 mm 0 mps 624 mmHg 90%
    11:00 +1°C° 0 mm 1 mps 624 mmHg 89%
    12:00 +2°C° 0 mm 1 mps 623 mmHg 88%
    13:00 +2°C° 0 mm 1 mps 623 mmHg 88%
    14:00 +2°C° 0 mm 1 mps 623 mmHg 88%
    15:00 +3°C° 0 mm 1 mps 623 mmHg 88%
    16:00 +3°C° 0 mm 1 mps 623 mmHg 87%
    17:00 +1°C° 0 mm 1 mps 622 mmHg 90%
    18:00 0°C° 0 mm 1 mps 622 mmHg 93%
    19:00 -1°C° 0 mm 1 mps 622 mmHg 96%
    20:00 -2°C° 0 mm 1 mps 622 mmHg 96%
    21:00 -5°C° 0 mm 2 mps 622 mmHg 96%
    22:00 -5°C° 0 mm 2 mps 622 mmHg 96%
    23:00 -6°C° 0 mm 2 mps 621 mmHg 95%

    30 April, Sunday

    Time Temperature Precipitation Wind Pressure Humidity
    00:00 -6°C° 0 mm 2 mps 621 mmHg 95%
    01:00 -7°C° 0 mm 2 mps 621 mmHg 94%
    02:00 -7°C° 0 mm 2 mps 621 mmHg 94%
    03:00 -7°C° 0 mm 2 mps 620 mmHg 94%
    04:00 -7°C° 0 mm 2 mps 620 mmHg 94%
    05:00 -5°C° 0 mm 2 mps 621 mmHg 93%
    06:00 -4°C° 0 mm 2 mps 621 mmHg 91%
    07:00 -2°C° 0 mm 2 mps 622 mmHg 90%
    08:00 -1°C° 0 mm 2 mps 622 mmHg 90%
    09:00 +1°C° 0 mm 2 mps 622 mmHg 89%
    10:00 +3°C° 0 mm 2 mps 622 mmHg 88%
    11:00 +3°C° 0 mm 2 mps 622 mmHg 87%
    12:00 +4°C° 0 mm 2 mps 622 mmHg 86%
    13:00 +4°C° 0 mm 2 mps 621 mmHg 85%
    14:00 +4°C° 0 mm 2 mps 621 mmHg 85%
    15:00 +4°C° 0 mm 2 mps 621 mmHg 85%
    16:00 +5°C° 0 mm 2 mps 621 mmHg 84%
    17:00 +4°C° 0 mm 2 mps 620 mmHg 88%
    18:00 +2°C° 0 mm 2 mps 620 mmHg 91%
    19:00 +1°C° 0 mm 2 mps 620 mmHg 94%
    20:00 +1°C° 0 mm 2 mps 620 mmHg 94%
    21:00 -1°C° 0 mm 3 mps 619 mmHg 93%
    22:00 -2°C° 0 mm 3 mps 619 mmHg 93%
    23:00 -2°C° 0 mm 3 mps 619 mmHg 92%
    Show more